Location: Indian Hills
(32.9760°N, 85.9450°W)
Time: 21:22:46
(UTC+00:00)

Cosmos 1417 Rocket - Pass Details

Date: 09 December 2019
Orbit: 952 x 999 km, 83.0° (Epoch: 18 January)

Event Time Altitude Azimuth Distance (km) Brightness Sun altitude
Rises 00:21:59 0° 359° (N) 3,631 7.4 -21.4°
Reaches altitude 10° 00:24:32 10° 4° (N) 2,682 6.6 -22.0°
Maximum altitude 00:30:33 56° 82° (E) 1,123 4.4 -23.2°
Drops below altitude 10° 00:36:32 10° 160° (SSE) 2,681 6.7 -24.4°
Sets 00:39:05 0° 164° (SSE) 3,629 7.5 -24.9°
